TimeEDT,TemperatureF,Dew PointF,Humidity,Sea Level PressureIn,VisibilityMPH,Wind Direction,Wind SpeedMPH,Gust SpeedMPH,PrecipitationIn,Events,Conditions,WindDirDegrees,DateUTC
12:12 AM,62.6,62.6,100,30.13,1.8,SSE,3.5,-,N/A,,Clear,160,2012-10-25 04:12:00
12:23 AM,62.6,62.6,100,30.13,0.8,Calm,Calm,-,N/A,,Clear,0,2012-10-25 04:23:00
12:32 AM,64.4,64.4,100,30.13,1.8,Calm,Calm,-,N/A,,Clear,0,2012-10-25 04:32:00
12:56 AM,63.0,62.1,97,30.14,9.0,Calm,Calm,-,N/A,,Clear,0,2012-10-25 04:56:00
1:06 AM,60.8,60.8,100,30.14,1.0,Calm,Calm,-,N/A,,Clear,0,2012-10-25 05:06:00
1:13 AM,60.8,60.8,100,30.14,0.5,Calm,Calm,-,N/A,Fog,Fog,0,2012-10-25 05:13:00
1:29 AM,62.6,62.6,100,30.13,1.2,Calm,Calm,-,N/A,,Clear,0,2012-10-25 05:29:00
1:37 AM,60.8,60.8,100,30.14,9.0,Calm,Calm,-,N/A,,Clear,0,2012-10-25 05:37:00
1:56 AM,61.0,61.0,100,30.14,7.0,Calm,Calm,-,N/A,,Clear,0,2012-10-25 05:56:00
2:56 AM,60.1,60.1,100,30.12,5.0,Calm,Calm,-,N/A,,Clear,0,2012-10-25 06:56:00
3:13 AM,60.8,60.8,100,30.11,1.5,Calm,Calm,-,N/A,,Partly Cloudy,0,2012-10-25 07:13:00
3:20 AM,59.0,59.0,100,30.11,1.0,Calm,Calm,-,N/A,,Mist,0,2012-10-25 07:20:00
3:25 AM,57.2,57.2,100,30.11,2.0,Calm,Calm,-,N/A,,Partly Cloudy,0,2012-10-25 07:25:00
3:37 AM,57.2,57.2,100,30.11,1.5,Calm,Calm,-,N/A,,Partly Cloudy,0,2012-10-25 07:37:00
3:42 AM,59.0,59.0,100,30.11,3.0,Calm,Calm,-,N/A,,Partly Cloudy,0,2012-10-25 07:42:00
3:45 AM,57.2,57.2,100,30.11,1.2,Calm,Calm,-,N/A,,Scattered Clouds,0,2012-10-25 07:45:00
3:47 AM,57.2,57.2,100,30.11,0.8,Calm,Calm,-,N/A,,Mist,0,2012-10-25 07:47:00
3:56 AM,57.9,57.9,100,30.12,2.0,Calm,Calm,-,N/A,,Partly Cloudy,0,2012-10-25 07:56:00
4:00 AM,57.2,57.2,100,30.11,1.0,Calm,Calm,-,N/A,,Mist,0,2012-10-25 08:00:00
4:07 AM,57.2,57.2,100,30.11,0.5,Calm,Calm,-,N/A,Fog,Fog,0,2012-10-25 08:07:00
4:15 AM,59.0,59.0,100,30.11,2.0,Calm,Calm,-,N/A,,Scattered Clouds,0,2012-10-25 08:15:00
4:25 AM,55.4,55.4,100,30.11,7.0,Calm,Calm,-,N/A,,Scattered Clouds,0,2012-10-25 08:25:00
4:41 AM,57.2,57.2,100,30.11,1.5,Calm,Calm,-,N/A,,Scattered Clouds,0,2012-10-25 08:41:00
4:43 AM,57.2,57.2,100,30.11,0.8,Calm,Calm,-,N/A,,Mist,0,2012-10-25 08:43:00
4:52 AM,57.2,57.2,100,30.12,1.5,Calm,Calm,-,N/A,,Partly Cloudy,0,2012-10-25 08:52:00
4:54 AM,57.2,57.2,100,30.12,4.0,Calm,Calm,-,N/A,,Partly Cloudy,0,2012-10-25 08:54:00
4:56 AM,57.9,57.9,100,30.12,5.0,Calm,Calm,-,N/A,,Partly Cloudy,0,2012-10-25 08:56:00
5:56 AM,60.1,60.1,100,30.13,2.5,Calm,Calm,-,0.01,,Clear,0,2012-10-25 09:56:00
6:06 AM,60.8,60.8,100,30.13,4.0,Calm,Calm,-,N/A,,Clear,0,2012-10-25 10:06:00
6:30 AM,60.8,60.8,100,30.13,1.5,Calm,Calm,-,N/A,,Clear,0,2012-10-25 10:30:00
6:39 AM,59.0,59.0,100,30.13,0.8,Calm,Calm,-,N/A,,Clear,0,2012-10-25 10:39:00
6:46 AM,59.0,59.0,100,30.13,1.0,Calm,Calm,-,N/A,,Mist,0,2012-10-25 10:46:00
6:56 AM,59.0,59.0,100,30.14,0.8,NE,3.5,-,N/A,,Mist,50,2012-10-25 10:56:00
7:04 AM,60.8,60.8,100,30.13,1.2,NE,4.6,-,N/A,,Partly Cloudy,40,2012-10-25 11:04:00
7:10 AM,60.8,60.8,100,30.13,3.0,NE,5.8,-,N/A,,Partly Cloudy,50,2012-10-25 11:10:00
7:18 AM,60.8,60.8,100,30.13,2.5,NE,5.8,-,N/A,,Mostly Cloudy,50,2012-10-25 11:18:00
7:29 AM,60.8,60.8,100,30.13,3.0,NE,6.9,-,N/A,,Scattered Clouds,50,2012-10-25 11:29:00
7:34 AM,62.6,62.6,100,30.14,1.8,NE,6.9,-,N/A,,Mostly Cloudy,50,2012-10-25 11:34:00
7:37 AM,62.6,62.6,100,30.14,0.8,NE,6.9,-,N/A,,Mist,50,2012-10-25 11:37:00
8:02 AM,62.6,62.6,100,30.14,3.0,NE,5.8,-,N/A,,Mostly Cloudy,50,2012-10-25 12:02:00
8:10 AM,62.6,62.6,100,30.15,5.0,ENE,5.8,-,N/A,,Scattered Clouds,60,2012-10-25 12:10:00
9:56 AM,72.0,64.9,78,30.17,10.0,NE,4.6,-,N/A,,Clear,40,2012-10-25 13:56:00
11:56 AM,78.1,64.9,64,30.16,10.0,NE,6.9,-,N/A,,Clear,50,2012-10-25 15:56:00
2:56 PM,79.0,63.0,58,30.10,10.0,NE,9.2,-,N/A,,Clear,50,2012-10-25 18:56:00
3:56 PM,79.0,63.0,58,30.10,10.0,ENE,4.6,-,N/A,,Clear,60,2012-10-25 19:56:00
4:56 PM,77.0,64.0,64,30.10,10.0,ESE,3.5,-,N/A,,Clear,110,2012-10-25 20:56:00
5:56 PM,73.9,63.0,68,30.11,10.0,NE,4.6,-,N/A,,Clear,50,2012-10-25 21:56:00
6:56 PM,70.0,63.0,78,30.12,10.0,NE,4.6,-,N/A,,Clear,50,2012-10-25 22:56:00
7:56 PM,68.0,61.0,78,30.12,10.0,ENE,3.5,-,N/A,,Clear,60,2012-10-25 23:56:00
9:56 PM,66.0,62.1,87,30.10,10.0,NE,4.6,-,N/A,,Unknown,40,2012-10-26 01:56:00